TimeEST,TemperatureF,Dew PointF,Humidity,Sea Level PressureIn,VisibilityMPH,Wind Direction,Wind SpeedMPH,Gust SpeedMPH,PrecipitationIn,Events,Conditions,WindDirDegrees,DateUTC
12:53 AM,54.0,41.0,62,29.97,10.0,SSW,8.1,-,N/A,,Clear,200,2012-11-23 05:53:00
1:53 AM,53.1,42.1,66,29.95,10.0,SSW,8.1,-,0.00,,Overcast,210,2012-11-23 06:53:00
2:31 AM,55.4,41.0,58,29.95,10.0,SSW,11.5,-,N/A,,Overcast,210,2012-11-23 07:31:00
2:53 AM,55.9,41.0,57,29.94,10.0,SW,11.5,18.4,N/A,,Overcast,220,2012-11-23 07:53:00
3:14 AM,57.2,41.0,55,29.93,10.0,SW,15.0,21.9,N/A,,Overcast,230,2012-11-23 08:14:00
3:39 AM,57.2,41.0,55,29.93,10.0,SW,17.3,25.3,N/A,,Overcast,230,2012-11-23 08:39:00
3:53 AM,55.9,41.0,57,29.92,10.0,SW,17.3,27.6,N/A,,Overcast,220,2012-11-23 08:53:00
4:53 AM,55.9,42.1,60,29.91,10.0,SW,15.0,21.9,N/A,,Overcast,230,2012-11-23 09:53:00
5:53 AM,53.1,46.0,77,29.92,10.0,WSW,8.1,-,0.00,,Overcast,240,2012-11-23 10:53:00
6:32 AM,53.6,48.2,82,29.93,10.0,WSW,10.4,-,N/A,,Overcast,250,2012-11-23 11:32:00
6:53 AM,52.0,48.9,89,29.93,10.0,West,11.5,18.4,0.00,,Overcast,270,2012-11-23 11:53:00
7:19 AM,50.0,44.6,82,29.94,10.0,West,13.8,24.2,N/A,,Overcast,280,2012-11-23 12:19:00
7:53 AM,46.0,39.0,76,29.97,10.0,West,13.8,23.0,N/A,,Overcast,280,2012-11-23 12:53:00
8:53 AM,43.0,36.0,76,29.98,10.0,West,11.5,23.0,N/A,,Overcast,280,2012-11-23 13:53:00
9:53 AM,42.1,32.0,67,29.99,10.0,West,17.3,23.0,N/A,,Clear,280,2012-11-23 14:53:00
10:53 AM,44.1,30.9,60,30.01,10.0,West,20.7,27.6,N/A,,Partly Cloudy,260,2012-11-23 15:53:00
11:53 AM,43.0,30.0,60,30.00,10.0,West,18.4,29.9,N/A,,Mostly Cloudy,280,2012-11-23 16:53:00
12:53 PM,42.1,28.0,58,29.99,10.0,West,19.6,31.1,N/A,,Overcast,280,2012-11-23 17:53:00
1:53 PM,39.9,27.0,60,30.00,10.0,West,19.6,29.9,N/A,,Scattered Clouds,280,2012-11-23 18:53:00
2:53 PM,39.9,25.0,55,30.01,10.0,West,17.3,33.4,N/A,,Overcast,270,2012-11-23 19:53:00
3:53 PM,37.9,25.0,60,30.04,10.0,West,16.1,31.1,N/A,,Overcast,280,2012-11-23 20:53:00
4:53 PM,37.0,26.1,65,30.08,10.0,West,20.7,32.2,N/A,,Overcast,280,2012-11-23 21:53:00
5:53 PM,33.1,23.0,66,30.12,10.0,NW,12.7,-,N/A,,Overcast,310,2012-11-23 22:53:00
6:31 PM,33.8,23.0,65,30.12,10.0,WNW,16.1,23.0,N/A,,Overcast,290,2012-11-23 23:31:00
6:53 PM,32.0,21.9,66,30.14,10.0,WNW,17.3,25.3,N/A,,Overcast,290,2012-11-23 23:53:00
7:53 PM,30.9,19.9,64,30.17,10.0,WNW,12.7,20.7,N/A,,Overcast,290,2012-11-24 00:53:00
8:51 PM,30.2,19.4,64,30.16,10.0,WNW,13.8,-,N/A,,Overcast,300,2012-11-24 01:51:00
8:53 PM,30.0,19.0,64,30.18,10.0,WNW,15.0,-,N/A,,Overcast,300,2012-11-24 01:53:00
10:26 PM,30.2,17.6,60,30.16,10.0,WNW,10.4,-,N/A,,Overcast,300,2012-11-24 03:26:00
10:53 PM,30.0,18.0,61,30.19,10.0,NNW,12.7,-,N/A,,Overcast,330,2012-11-24 03:53:00
11:53 PM,30.0,19.0,64,30.17,10.0,WNW,10.4,-,N/A,,Overcast,300,2012-11-24 04:53:00